Temp
9 9 9 8 8 8 8 9 9 10 10 11 12 12 12 12 11 11 11 11 11 9 9 9 9 9 11 16 18 19 18 18 17 18 21 23 23 23 23 25 26 26 26 27 28 27 27
8 8 8 8 8 8 8 8 9 9 10 10 11 11 12 11 10 11 11 11 10 9 8 8 8 9 11 15 19 20 18 17 19 19 21 22 23 24 23 24 24 26 26 26 26 27 26
8 8 8 8 8 8 8 9 9 9 9 10 10 11 10 10 9 10 11 10 10 9 8 8 8 9 12 15 18 19 19 19 19 20 22 22 22 23 23 23 24 24 23 25 26 26 26
7 7 8 8 8 8 8 9 9 9 9 10 9 9 9 9 10 10 10 10 10 9 8 7 8 9 13 16 17 18 19 19 19 20 20 21 21 22 21 23 23 23 24 23 26 27 27
7 7 8 8 8 8 8 8 9 9 10 10 8 9 9 9 10 10 10 10 10 8 7 7 9 11 16 16 16 17 17 19 19 19 19 19 21 20 21 19 20 22 21 24 26 28 26
7 7 8 7 8 8 8 8 9 10 11 11 9 9 9 9 10 10 10 9 7 7 7 8 10 11 15 18 20 18 19 18 19 20 19 19 19 19 20 20 18 21 22 25 24 27 25
7 7 7 7 7 8 7 8 9 10 11 11 10 10 10 11 10 9 8 7 8 8 8 15 17 17 20 20 18 19 19 19 19 19 19 20 18 19 20 21 21 22 22 23 26 28 25
7 7 7 7 7 7 8 8 9 10 11 11 10 12 12 11 9 9 9 9 14 14 14 13 16 17 18 18 18 19 20 18 19 18 20 18 16 19 21 20 19 20 21 21 22 24 24
7 7 7 7 7 8 8 8 9 10 11 11 11 12 11 10 9 8 8 11 10 11 11 16 19 18 19 19 18 19 20 19 18 19 19 20 19 18 18 17 14 15 17 19 18 20 23
7 7 7 7 8 8 8 8 9 10 11 11 12 12 10 9 7 8 8 8 9 11 10 17 18 19 19 19 17 19 19 20 18 18 19 18 20 18 16 15 14 13 17 18 18 19 20
7 7 7 7 8 8 8 8 7 9 11 11 11 10 10 9 7 7 7 8 10 10 12 21 21 18 19 17 20 21 20 19 18 17 15 17 16 16 16 16 16 14 16 16 17 18 20
7 7 7 7 7 7 7 7 7 9 11 11 11 10 8 7 7 8 7 9 9 10 13 19 19 17 17 17 18 20 19 19 17 13 11 13 14 15 17 16 14 13 13 16 18 19 17
6 6 7 6 6 7 6 6 6 8 9 9 8 7 6 6 6 7 7 8 9 11 17 18 18 18 18 18 18 18 18 15 15 11 12 13 14 13 15 14 14 13 11 12 13 15 17
6 6 6 6 6 6 5 5 5 5 5 4 4 5 5 6 5 6 8 8 10 16 16 18 18 19 17 19 19 19 18 15 16 15 14 13 13 14 14 14 14 14 13 14 14 14 16
6 6 6 6 6 6 6 5 5 6 6 6 6 4 4 4 5 6 7 10 13 13 17 16 17 17 18 18 19 19 18 16 16 16 15 16 17 19 18 18 18 14 15 17 16 17 18
5 5 6 6 6 6 6 5 5 5 6 5 5 4 4 4 5 5 7 11 15 16 16 16 14 13 16 18 18 18 18 19 17 16 18 15 15 18 19 18 19 18 18 16 16 15 17
5 5 5 6 6 6 5 5 5 5 5 6 6 6 3 4 4 5 10 13 15 16 15 15 15 14 15 16 18 18 18 17 17 17 17 16 16 15 17 17 16 18 15 16 15 16 16
4 4 5 5 5 5 5 5 5 5 5 6 8 7 3 4 5 6 10 13 12 14 15 14 15 14 14 15 16 15 17 16 15 16 16 16 15 15 16 16 17 17 18 16 13 15 15
4 4 4 4 4 4 5 5 5 4 5 7 6 5 3 4 7 8 11 12 13 13 14 13 13 14 15 13 13 11 15 12 13 15 15 15 14 15 15 16 17 17 17 17 16 16 16
3 3 4 4 4 5 4 5 5 4 5 4 8 7 4 4 5 9 10 11 12 14 14 14 12 13 13 13 14 12 11 12 13 14 10 12 15 15 15 15 17 15 16 16 15 14 16
3 3 3 4 4 3 4 5 5 5 4 3 7 8 9 6 6 10 11 12 12 12 14 14 12 12 12 11 12 13 13 12 12 11 13 14 13 14 15 14 15 15 15 15 15 15 14
3 3 3 4 4 4 4 4 4 4 4 3 6 9 11 11 11 10 9 11 13 13 13 13 12 12 12 11 12 13 13 13 13 12 13 13 13 13 13 14 14 13 15 15 15 15 15
3 3 3 3 4 4 4 4 4 4 3 3 7 9 11 10 11 10 10 12 13 13 13 13 12 13 11 11 13 14 14 14 13 13 13 12 12 12 13 12 13 13 14 15 15 16 15
3 3 3 3 3 5 4 4 4 3 3 6 6 8 9 10 10 10 12 12 12 12 12 12 12 13 12 13 13 13 13 13 13 13 13 12 12 12 13 12 11 11 12 11 11 12 11
2 3 3 3 4 3 4 4 3 3 3 4 4 7 8 8 12 12 12 12 12 12 11 12 12 13 13 12 12 11 11 11 11 12 12 13 12 12 11 12 13 11 10 7 7 8 6
2 2 4 4 4 4 3 3 3 3 3 3 4 5 8 8 11 13 12 12 11 11 11 10 10 12 12 12 12 11 11 13 11 11 12 12 12 12 12 11 11 8 10 10 8 9 6
2 4 3 3 3 3 3 3 3 3 3 4 4 5 7 7 10 11 11 12 12 12 11 11 10 10 11 10 10 11 11 13 11 10 9 10 10 11 11 12 8 7 9 9 7 6 4
2 3 3 3 3 3 3 3 3 3 3 3 3 5 7 8 9 10 11 11 11 13 11 11 10 10 10 10 11 11 11 12 11 7 10 10 11 11 12 11 9 7 8 7 4 4 3
3 3 3 3 3 3 3 3 3 4 4 4 5 5 6 9 8 7 7 8 8 10 12 11 11 11 11 12 12 12 11 10 10 10 9 9 7 9 7 7 4 5 3 3 4 3 1
Height
798 798 796 797 796 796 795 794 793 793 792 791 791 791 790 789 791 794 793 794 794 795 794 795 797 797 796 791 779 774 771 773 774 773 771 768 766 764 763 749 742 742 736 731 725 728 728
794 794 793 792 791 792 791 791 789 787 787 786 785 785 785 785 784 789 790 790 792 792 793 794 794 797 797 784 771 770 771 771 771 770 768 766 762 758 756 755 751 741 732 729 726 723 723
790 789 788 788 786 785 786 785 784 783 781 780 779 777 779 779 779 783 785 787 788 790 791 792 793 794 790 773 769 767 765 763 764 764 760 761 760 759 753 753 743 743 743 731 724 722 721
785 785 784 783 783 780 781 779 778 777 776 775 771 772 771 773 774 777 781 784 786 788 790 791 791 793 776 765 763 759 759 759 761 762 761 761 759 756 756 751 744 744 737 736 715 710 707
781 781 780 779 777 776 775 773 773 771 769 768 766 765 765 767 770 773 777 781 784 786 790 791 791 789 762 759 758 755 755 755 759 761 761 763 761 757 753 757 755 740 742 725 707 693 703
777 776 775 774 772 772 770 769 766 763 762 761 760 758 757 760 764 768 773 780 782 786 788 790 789 791 760 753 748 753 752 755 754 753 758 761 761 755 744 749 750 738 732 712 713 694 700
773 771 771 769 768 766 766 763 760 757 756 753 752 749 751 754 759 763 767 780 787 788 783 764 755 750 743 742 749 749 748 752 750 749 752 750 757 742 738 729 729 727 726 717 696 681 696
768 768 766 766 762 760 760 758 755 751 748 746 745 746 747 750 752 757 765 769 765 767 758 758 751 742 745 749 744 741 744 750 745 744 737 749 754 732 729 733 738 735 727 723 714 699 700
763 763 762 762 758 756 753 751 749 745 740 738 738 740 743 745 749 757 760 763 767 769 772 743 732 728 734 740 733 728 736 737 738 736 733 729 728 738 740 746 763 753 744 730 738 725 702
758 758 756 756 754 752 749 744 741 738 733 731 731 734 739 745 754 752 757 760 766 773 777 729 722 717 720 730 730 722 721 724 731 729 728 726 721 733 745 747 753 761 743 733 736 726 718
751 752 752 750 751 747 745 740 735 732 727 726 728 730 733 737 741 749 754 761 766 773 760 706 704 721 718 722 711 707 712 719 724 729 745 725 736 736 732 732 742 747 741 744 736 727 708
745 746 747 746 746 743 741 737 733 728 722 722 723 729 732 740 741 746 753 760 768 770 742 707 708 721 724 718 713 707 714 716 727 742 752 743 745 738 725 735 749 754 752 736 724 718 719
739 741 741 742 741 740 739 736 733 729 722 719 723 727 734 735 737 745 752 762 768 748 714 705 705 712 717 709 711 708 716 727 730 748 742 739 735 742 737 742 744 753 759 749 741 732 714
733 735 735 736 738 738 738 735 735 731 729 726 727 727 733 733 737 742 749 758 744 706 706 697 703 701 710 700 699 700 708 720 720 724 726 729 727 730 731 732 732 735 745 733 727 727 713
726 729 729 730 731 734 734 735 735 734 734 730 730 733 736 739 741 743 747 738 713 718 701 707 707 707 697 694 694 695 700 708 713 717 723 714 706 696 704 709 714 729 724 712 711 704 700
721 722 722 724 725 727 729 731 732 732 732 733 734 737 740 741 743 747 746 721 700 703 707 708 714 718 699 688 692 691 692 689 700 709 705 717 715 698 699 704 703 708 705 717 718 715 699
715 715 716 717 719 719 722 725 728 729 731 732 734 736 741 742 745 747 722 705 701 700 707 709 705 709 705 699 687 686 688 700 701 706 709 714 710 715 708 705 709 702 714 713 714 709 703
707 708 709 711 714 714 716 719 722 726 729 731 728 728 739 742 745 740 717 706 712 705 708 709 708 705 705 706 696 702 692 697 711 707 709 712 713 712 705 710 710 707 699 708 721 710 715
700 701 703 705 707 708 709 714 717 722 726 726 725 732 739 740 727 727 713 708 708 708 707 712 709 705 705 711 710 718 703 719 718 711 708 713 717 710 710 712 707 706 702 705 707 709 707
693 694 696 697 699 699 704 709 713 719 723 727 720 723 738 738 731 715 713 710 708 705 704 707 713 708 711 709 705 710 718 721 720 718 728 723 709 703 708 705 698 713 710 711 716 720 708
686 687 688 691 694 696 700 705 710 714 720 725 715 705 704 717 723 710 708 705 703 703 703 701 710 711 711 714 710 707 710 719 721 727 722 720 718 711 711 713 711 710 709 711 713 712 718
677 679 681 683 685 687 693 700 706 712 718 721 713 701 696 694 701 710 712 703 695 696 696 699 705 707 712 715 710 705 709 710 714 722 718 721 715 718 714 714 716 716 711 710 711 711 712
669 671 674 676 679 683 683 695 702 707 712 714 710 704 697 696 693 704 702 694 691 696 698 701 705 706 712 719 710 705 707 711 713 715 719 723 724 722 711 720 719 717 712 709 708 706 711
660 663 667 670 674 677 684 692 697 704 708 708 707 707 699 691 692 692 691 692 692 697 700 705 709 703 714 717 718 718 718 719 719 720 720 725 724 724 713 724 724 725 729 731 731 723 730
654 653 653 660 667 673 681 689 695 701 705 708 708 707 699 693 682 687 689 688 694 696 707 703 710 710 717 716 715 720 724 725 726 724 724 720 719 721 724 713 711 724 737 754 754 744 760
647 644 644 653 662 671 680 688 694 700 704 709 709 708 704 696 683 683 685 689 694 700 707 716 720 720 717 715 711 709 711 700 719 724 720 725 722 721 718 717 716 742 742 742 753 740 762
640 642 648 653 662 672 681 687 693 699 704 708 709 709 706 702 694 690 691 690 694 696 701 712 718 721 719 719 718 708 707 699 709 719 732 729 729 723 716 714 743 754 745 749 751 760 771
641 646 652 659 667 674 681 686 692 698 703 707 710 708 706 699 702 699 699 698 697 694 700 708 717 719 718 718 707 713 710 706 713 736 721 724 720 720 709 720 729 755 748 755 772 773 776
644 650 657 664 670 676 681 687 691 696 701 706 706 705 706 702 707 709 710 710 708 706 699 710 707 708 708 703 702 703 710 716 716 720 731 733 741 730 744 748 767 766 771 775 773 774 781
Wind_Speed
13 15 15 16 16 17 17 18 18 20 21 22 23 24 25 25 26 28 28 25 22 17 15 11 10 11 9 10 15 14 7 7 9 10 14 13 13 15 21 16 18 24 22 21 20 17 21
14 15 15 17 18 20 20 20 22 22 24 25 25 25 27 28 25 27 27 26 23 18 15 10 6 9 8 19 11 12 10 12 16 17 19 17 15 17 21 24 23 22 18 20 23 20 19
13 15 16 18 19 19 22 22 25 28 28 27 27 27 27 25 24 25 27 28 24 20 16 10 6 7 14 21 18 14 18 23 21 24 19 21 19 18 13 20 22 23 29 25 24 21 22
15 16 17 18 21 21 24 23 26 30 32 30 28 28 26 25 23 24 26 27 24 19 15 8 6 7 10 14 18 25 25 21 20 21 22 20 18 18 21 21 29 24 23 23 20 25 26
16 17 17 20 22 24 25 24 28 31 30 31 30 29 26 24 22 21 24 29 22 16 9 4 5 6 16 0 12 19 22 23 21 20 18 19 18 18 16 18 20 20 22 25 22 19 13
17 17 18 20 22 23 24 27 28 29 29 31 32 31 27 22 18 18 25 26 16 7 3 4 8 4 11 14 8 6 5 17 15 13 16 14 10 16 20 16 20 21 26 26 24 20 17
18 18 19 20 22 23 25 28 29 29 30 31 31 28 20 18 17 25 34 16 6 2 8 12 9 14 4 4 4 10 10 11 15 14 18 17 16 23 25 27 29 27 25 30 25 17 14
19 20 20 21 19 22 28 29 30 28 29 31 23 16 15 17 22 35 27 5 12 5 9 25 24 30 33 26 24 18 9 11 16 20 20 17 20 29 23 22 19 27 28 28 24 22 12
21 21 19 19 21 26 26 30 31 30 29 30 21 18 17 19 28 35 21 14 4 6 4 14 23 25 22 22 28 30 20 21 23 21 24 25 25 12 21 17 18 23 27 24 22 25 22
22 22 19 20 25 25 27 29 30 28 30 23 18 17 18 24 27 18 10 15 13 6 2 12 8 7 12 16 15 22 30 26 22 27 21 19 22 23 11 17 21 20 24 21 25 21 17
24 24 23 22 25 23 25 26 27 29 25 16 16 17 26 33 16 11 14 18 18 6 5 8 6 5 7 18 6 6 10 23 27 21 6 15 15 21 28 28 12 19 18 23 27 22 21
27 25 24 23 24 20 21 19 20 24 14 17 17 23 35 19 12 17 27 27 10 4 10 9 6 8 12 18 15 4 3 15 3 2 6 16 3 9 25 17 15 12 13 18 20 18 16
27 27 26 22 21 13 9 9 12 6 9 21 31 38 22 17 11 29 33 9 3 7 1 10 9 13 16 14 15 15 10 17 11 6 13 13 17 6 9 15 20 18 8 4 5 8 11
26 26 26 25 22 16 10 7 7 15 19 22 22 19 10 7 33 41 19 3 9 10 21 0 5 12 17 15 16 14 17 17 20 15 3 10 7 19 20 19 12 26 19 6 5 5 8
23 23 24 25 24 25 19 14 13 15 16 17 16 14 9 20 37 27 5 6 9 7 5 6 8 13 17 16 14 16 22 19 18 18 9 5 9 14 12 17 20 10 21 24 15 16 10
22 22 24 25 27 32 26 19 17 16 15 15 7 5 5 26 23 10 3 6 8 6 4 7 10 5 13 15 16 18 17 12 21 20 14 5 3 7 11 9 15 16 14 16 7 5 10
22 22 24 23 25 32 28 23 20 17 18 16 7 3 8 20 12 1 5 9 9 8 6 7 9 9 12 8 15 13 7 4 8 10 9 3 4 4 3 9 5 12 9 6 6 8 6
23 24 25 23 27 32 30 27 24 21 19 13 6 3 17 23 4 3 9 5 2 9 9 8 6 7 9 10 9 6 10 3 2 7 15 9 4 6 12 4 4 9 10 4 3 6 7
24 24 24 26 26 29 34 29 27 27 24 10 4 3 12 5 5 7 10 12 9 9 11 8 8 8 6 12 6 3 7 4 2 5 9 8 7 8 8 8 6 7 7 7 5 5 11
24 24 25 23 20 27 34 33 31 28 27 5 4 4 3 3 4 10 18 12 13 13 8 8 3 5 9 10 9 8 7 4 3 3 3 2 5 8 6 2 2 6 9 8 5 5 10
26 24 24 20 21 26 38 36 32 29 27 5 3 5 10 7 9 12 13 10 17 9 12 12 6 11 10 6 9 9 10 11 6 4 4 5 6 6 2 1 1 2 6 7 8 9 6
26 25 21 23 25 26 45 38 32 29 29 7 2 4 7 5 19 20 13 11 18 16 14 11 8 8 12 6 4 10 9 10 6 6 5 2 3 5 8 4 6 8 9 11 11 11 13
26 25 25 21 24 24 36 33 31 29 31 5 9 6 6 7 16 16 14 16 16 11 4 5 7 7 11 6 3 3 3 2 3 9 7 4 4 4 7 2 4 9 6 8 10 10 7
20 25 29 28 33 25 35 33 31 32 29 4 2 5 4 6 12 15 18 14 12 16 6 6 14 8 8 7 9 8 7 6 6 4 4 5 5 3 1 4 5 6 8 4 7 7 8
22 28 32 33 33 32 37 34 33 30 34 9 5 2 3 5 13 15 15 14 8 8 9 8 5 7 11 10 7 8 6 5 4 4 5 5 4 3 3 7 7 6 6 3 3 3 6
22 24 28 38 34 36 34 30 29 28 28 15 13 9 5 3 8 14 12 13 11 10 8 7 7 6 7 4 5 6 5 6 6 6 5 3 2 4 5 4 4 6 6 6 3 4 5
9 26 30 31 31 31 29 28 24 23 20 15 7 8 5 2 4 0 6 10 7 8 7 11 8 6 4 5 5 4 3 2 7 8 6 5 3 7 6 5 5 1 6 3 4 5 6
7 27 35 34 29 28 27 27 22 22 21 15 7 10 7 2 5 5 2 5 3 5 6 10 6 3 6 7 5 3 3 3 4 3 5 7 7 5 4 4 3 9 1 2 3 5 4
24 31 29 28 27 26 25 23 21 22 23 20 7 6 7 2 5 12 12 10 7 7 5 10 2 10 3 5 2 3 3 3 7 6 2 2 2 2 4 3 4 7 7 4 3 6 6
Wind_Direction
275 276 279 285 287 288 288 286 288 292 294 290 286 285 283 278 268 270 268 268 267 246 245 256 282 304 328 247 254 272 282 235 201 206 227 234 246 252 258 269 263 257 256 264 271 252 264
280 283 284 281 283 288 291 285 288 293 298 292 290 287 286 284 262 262 262 260 257 238 239 246 265 302 271 262 276 257 248 218 221 222 237 246 251 259 275 277 276 274 284 268 265 256 254
284 286 287 291 293 295 294 290 291 296 301 295 292 287 283 278 281 255 254 252 243 238 232 233 267 286 259 251 271 260 239 234 235 235 238 242 253 258 268 271 258 275 269 271 251 256 253
285 289 292 293 295 294 294 289 290 296 299 295 290 284 280 276 275 262 245 249 231 230 224 235 271 277 265 269 255 253 244 239 245 248 251 255 255 256 256 265 271 268 266 262 259 243 238
286 288 292 294 295 295 297 293 295 296 294 293 290 281 278 275 269 252 236 233 224 211 214 254 268 246 276 139 239 259 244 244 248 247 253 260 251 251 245 248 260 252 258 261 258 244 244
288 285 288 295 299 297 297 296 297 297 296 295 294 283 274 258 255 232 219 203 170 175 198 233 249 258 241 253 268 254 224 221 234 247 234 235 238 241 229 228 236 249 246 248 248 247 205
283 288 292 294 291 296 297 299 296 294 297 299 295 283 260 231 224 208 163 126 120 199 207 217 213 233 150 239 203 248 218 222 214 224 227 216 226 236 243 235 243 255 266 274 282 243 227
279 284 289 290 288 295 298 298 294 292 298 299 283 258 235 228 211 194 183 196 207 7 259 221 245 258 254 262 275 252 217 226 216 237 228 230 237 246 257 268 275 274 258 250 264 284 247
273 280 283 287 293 296 295 299 293 293 297 294 263 253 237 216 195 184 179 193 133 44 304 276 245 247 249 239 250 258 246 225 245 240 248 235 236 268 247 258 269 269 266 258 254 280 277
272 274 277 285 292 291 295 296 295 297 300 275 250 237 215 192 165 175 156 138 129 118 282 271 223 257 216 225 267 255 237 230 233 248 253 256 256 233 233 224 220 250 262 267 276 256 248
265 271 275 280 284 285 289 296 299 296 288 246 230 203 192 186 150 166 155 143 140 95 251 250 210 100 157 183 359 173 242 217 228 236 222 229 237 239 230 232 223 253 251 261 240 259 263
264 266 270 275 280 281 284 290 294 298 260 224 198 189 169 159 123 151 143 137 120 144 232 206 162 209 200 209 235 274 237 208 296 269 271 261 283 296 244 228 230 270 305 243 251 245 239
258 263 264 266 265 256 255 262 279 281 148 171 158 157 164 164 154 144 141 128 143 212 131 216 197 209 223 212 224 231 211 188 190 192 226 226 222 245 239 216 207 226 243 222 221 218 246
262 265 261 259 246 223 199 158 120 128 126 123 125 137 136 173 150 146 139 121 222 236 213 119 197 215 230 224 234 223 214 211 215 227 277 221 199 196 196 213 202 204 197 224 213 210 244
264 263 263 259 248 227 207 206 167 150 138 130 122 98 104 140 148 147 123 222 195 202 278 214 241 250 249 232 246 214 223 206 205 214 216 236 230 186 188 214 222 213 213 224 266 287 272
265 265 263 259 250 228 216 208 206 194 184 165 126 91 126 158 149 151 205 237 213 222 208 204 232 248 264 229 211 232 213 206 209 203 215 300 245 227 168 227 222 220 239 225 210 257 237
258 260 262 261 254 218 212 201 197 202 190 168 165 143 162 166 149 207 217 219 230 186 201 223 248 208 248 282 249 243 238 128 176 189 215 257 260 200 177 212 248 219 200 244 234 293 288
264 261 260 258 245 226 201 197 191 190 180 187 199 189 169 155 184 210 222 213 302 213 209 229 271 245 245 228 250 226 226 94 52 223 194 193 273 213 210 177 215 275 286 256 264 215 239
263 262 258 256 244 251 197 195 188 188 181 186 170 118 175 184 210 200 231 225 215 211 216 212 228 222 216 231 237 214 216 73 121 242 174 172 213 221 195 200 207 239 239 289 302 280 277
262 263 257 251 245 209 201 193 187 192 190 249 203 151 149 217 270 230 205 218 212 218 230 217 207 192 222 210 235 192 153 171 170 150 11 304 255 251 271 360 69 190 206 218 207 266 276
261 259 247 236 233 230 209 193 190 190 189 213 232 222 173 178 209 230 208 217 213 207 213 204 191 214 200 201 218 193 155 145 162 141 197 218 227 249 320 35 11 266 222 216 241 249 264
253 244 231 236 235 246 201 192 192 192 185 206 234 210 190 215 199 210 211 220 212 197 189 198 216 200 193 202 216 176 171 175 164 186 207 201 221 238 226 240 260 266 254 251 261 268 267
257 221 231 229 211 215 185 189 190 190 173 190 230 252 232 222 190 197 205 221 209 193 150 221 187 216 169 202 120 113 133 121 163 187 189 194 185 204 235 192 264 255 278 287 278 252 288
226 228 237 231 217 213 190 185 183 188 185 189 225 269 210 215 184 196 201 203 204 195 143 178 227 193 106 122 117 114 115 129 125 119 175 194 187 179 188 187 227 77 62 17 341 347 4
235 249 247 231 206 193 181 179 184 190 188 201 256 296 259 228 186 183 194 196 175 135 187 145 77 81 156 171 152 146 157 159 148 176 182 203 189 183 194 217 105 161 52 40 15 64 49
257 250 184 179 183 177 171 177 181 187 192 217 249 299 282 278 175 183 187 172 160 147 124 118 125 141 179 209 213 218 191 169 162 143 159 154 279 237 196 248 237 83 36 38 54 231 25
231 174 167 147 151 164 173 174 178 185 192 200 243 256 283 329 65 52 172 176 181 173 158 152 149 158 211 189 206 214 178 305 158 169 172 176 195 224 201 239 104 217 345 46 245 51 23
185 158 148 151 162 167 172 174 184 187 188 180 233 238 252 168 57 44 16 119 151 194 164 141 142 211 175 202 208 175 222 175 127 1 160 182 185 198 224 232 200 356 137 277 25 63 69
154 141 149 154 162 166 169 184 187 190 187 180 241 202 232 292 95 90 72 48 28 1 87 179 18 156 137 228 247 134 184 144 159 165 157 221 15 60 8 56 89 47 76 74 50 91 82